Time,TemperatureF,DewpointF,PressureIn,WindDirection,WindDirectionDegrees,WindSpeedMPH,WindSpeedGustMPH,Humidity,HourlyPrecipIn,Conditions,Clouds,dailyrainin,SoftwareType,DateUTC
2013-02-12 00:01:00,31.0,24.0,29.98,SW,214,6.0,15.0,75,0.00,,,0.03,,2013-02-12 05:01:00,
2013-02-12 00:11:00,31.0,24.0,29.98,SW,214,6.0,15.0,75,0.00,,,0.03,,2013-02-12 05:11:00,
2013-02-12 00:21:00,31.0,24.0,29.99,WSW,254,4.0,9.0,76,0.00,,,0.03,,2013-02-12 05:21:00,
2013-02-12 00:32:00,31.0,25.0,29.99,West,267,4.0,9.0,77,0.00,,,0.03,,2013-02-12 05:32:00,
2013-02-12 00:42:00,31.0,25.0,29.99,West,267,4.0,9.0,77,0.00,,,0.03,,2013-02-12 05:42:00,
2013-02-12 00:52:00,31.0,24.0,30.00,West,270,5.0,11.0,76,0.00,,,0.03,,2013-02-12 05:52:00,
2013-02-12 01:02:00,31.0,24.0,30.00,West,262,5.0,14.0,75,0.00,,,0.03,,2013-02-12 06:02:00,
2013-02-12 01:12:00,31.0,24.0,30.00,West,271,5.0,12.0,75,0.00,,,0.03,,2013-02-12 06:12:00,
2013-02-12 01:22:00,31.0,24.0,30.00,West,271,5.0,12.0,75,0.00,,,0.03,,2013-02-12 06:22:00,
2013-02-12 01:32:00,31.0,24.0,30.00,WSW,237,5.0,7.0,76,0.00,,,0.03,,2013-02-12 06:32:00,
2013-02-12 01:42:00,31.0,25.0,30.01,WNW,297,6.0,9.0,77,0.00,,,0.03,,2013-02-12 06:42:00,
2013-02-12 01:52:00,31.0,25.0,30.01,WNW,297,6.0,9.0,77,0.00,,,0.03,,2013-02-12 06:52:00,
2013-02-12 02:02:00,31.0,24.0,30.01,WNW,301,6.0,11.0,76,0.00,,,0.03,,2013-02-12 07:02:00,
2013-02-12 02:11:00,31.0,24.0,30.01,WNW,301,6.0,11.0,76,0.00,,,0.03,,2013-02-12 07:11:00,
2013-02-12 02:21:00,31.0,24.0,30.01,WSW,255,6.0,13.0,76,0.00,,,0.03,,2013-02-12 07:21:00,
2013-02-12 02:32:00,31.0,24.0,30.02,West,261,6.0,11.0,75,0.00,,,0.03,,2013-02-12 07:32:00,
2013-02-12 02:42:00,31.0,24.0,30.02,West,261,6.0,11.0,75,0.00,,,0.03,,2013-02-12 07:42:00,
2013-02-12 02:52:00,31.0,24.0,30.02,WSW,252,4.0,12.0,74,0.00,,,0.03,,2013-02-12 07:52:00,
2013-02-12 03:01:00,31.0,24.0,30.03,WNW,295,7.0,11.0,75,0.00,,,0.03,,2013-02-12 08:01:00,
2013-02-12 03:11:00,31.0,24.0,30.03,WNW,295,7.0,11.0,75,0.00,,,0.03,,2013-02-12 08:11:00,
2013-02-12 03:22:00,31.0,24.0,30.03,West,273,7.0,11.0,76,0.00,,,0.03,,2013-02-12 08:22:00,
2013-02-12 03:32:00,31.0,25.0,30.03,SW,227,4.0,8.0,77,0.00,,,0.03,,2013-02-12 08:32:00,
2013-02-12 03:42:00,31.0,25.0,30.03,SW,227,4.0,8.0,77,0.00,,,0.03,,2013-02-12 08:42:00,
2013-02-12 03:52:00,30.0,24.0,30.03,WNW,299,5.0,12.0,77,0.00,,,0.03,,2013-02-12 08:52:00,
2013-02-12 04:02:00,30.0,24.0,30.04,West,262,5.0,10.0,77,0.00,,,0.03,,2013-02-12 09:02:00,
2013-02-12 04:11:00,30.0,24.0,30.04,West,262,5.0,10.0,77,0.00,,,0.03,,2013-02-12 09:11:00,
2013-02-12 04:21:00,30.0,24.0,30.04,WNW,290,6.0,13.0,77,0.00,,,0.01,,2013-02-12 09:21:00,
2013-02-12 04:32:00,30.0,24.0,30.05,West,273,5.0,10.0,77,0.00,,,0.01,,2013-02-12 09:32:00,
2013-02-12 04:42:00,30.0,24.0,30.05,West,273,5.0,10.0,77,0.00,,,0.01,,2013-02-12 09:42:00,
2013-02-12 04:52:00,30.0,23.0,30.05,SSW,204,7.0,13.0,76,0.00,,,0.01,,2013-02-12 09:52:00,
2013-02-12 05:01:00,30.0,24.0,30.05,West,273,5.0,10.0,77,0.00,,,0.01,,2013-02-12 10:01:00,
2013-02-12 05:11:00,30.0,24.0,30.06,NW,314,10.0,16.0,77,0.00,,,0.01,,2013-02-12 10:11:00,
2013-02-12 05:21:00,30.0,24.0,30.06,NW,314,10.0,16.0,77,0.00,,,0.01,,2013-02-12 10:21:00,
2013-02-12 05:32:00,29.0,23.0,30.06,WNW,297,6.0,14.0,77,0.00,,,0.01,,2013-02-12 10:32:00,
2013-02-12 05:43:00,29.0,23.0,30.06,WNW,297,6.0,14.0,77,0.00,,,0.01,,2013-02-12 10:43:00,
2013-02-12 05:52:00,29.0,23.0,30.06,WNW,286,5.0,12.0,78,0.00,,,0.01,,2013-02-12 10:52:00,
2013-02-12 06:01:00,29.0,23.0,30.06,NNW,342,5.0,10.0,78,0.00,,,0.01,,2013-02-12 11:01:00,
2013-02-12 06:11:00,29.0,23.0,30.06,NNW,342,5.0,10.0,78,0.00,,,0.01,,2013-02-12 11:11:00,
2013-02-12 06:22:00,29.0,23.0,30.06,WNW,283,6.0,10.0,79,0.00,,,0.01,,2013-02-12 11:22:00,
2013-02-12 06:32:00,29.0,23.0,30.07,WNW,288,4.0,6.0,79,0.00,,,0.01,,2013-02-12 11:32:00,
2013-02-12 06:42:00,29.0,23.0,30.07,WNW,288,4.0,6.0,79,0.00,,,0.01,,2013-02-12 11:42:00,
2013-02-12 06:53:00,29.0,23.0,30.06,NW,323,4.0,7.0,79,0.00,,,0.01,,2013-02-12 11:53:00,
2013-02-12 07:02:00,29.0,24.0,30.06,WNW,287,3.0,6.0,80,0.00,,,0.01,,2013-02-12 12:02:00,
2013-02-12 07:11:00,29.0,24.0,30.06,WNW,287,3.0,6.0,80,0.00,,,0.01,,2013-02-12 12:11:00,
2013-02-12 07:22:00,29.0,24.0,30.06,West,276,5.0,8.0,81,0.00,,,0.01,,2013-02-12 12:22:00,
2013-02-12 07:32:00,29.0,24.0,30.07,WSW,245,3.0,8.0,81,0.00,,,0.01,,2013-02-12 12:32:00,
2013-02-12 07:42:00,29.0,24.0,30.07,WSW,245,3.0,8.0,81,0.00,,,0.01,,2013-02-12 12:42:00,
2013-02-12 07:53:00,28.0,23.0,30.07,SW,233,2.0,7.0,81,0.00,,,0.01,,2013-02-12 12:53:00,
2013-02-12 08:02:00,28.0,23.0,30.07,WSW,246,2.0,7.0,81,0.00,,,0.01,,2013-02-12 13:02:00,
2013-02-12 08:11:00,28.0,23.0,30.07,WSW,246,2.0,7.0,81,0.00,,,0.01,,2013-02-12 13:11:00,
2013-02-12 08:22:00,28.0,23.0,30.07,WSW,253,3.0,7.0,81,0.00,,,0.01,,2013-02-12 13:22:00,
2013-02-12 08:32:00,28.0,23.0,30.08,WSW,258,4.0,7.0,81,0.00,,,0.01,,2013-02-12 13:32:00,
2013-02-12 08:42:00,28.0,23.0,30.08,WSW,258,4.0,7.0,81,0.00,,,0.01,,2013-02-12 13:42:00,
2013-02-12 08:52:00,29.0,24.0,30.08,SW,234,3.0,6.0,81,0.00,,,0.01,,2013-02-12 13:52:00,
2013-02-12 09:01:00,29.0,24.0,30.09,West,274,4.0,8.0,80,0.00,,,0.01,,2013-02-12 14:01:00,
2013-02-12 09:12:00,29.0,24.0,30.09,West,274,4.0,8.0,80,0.00,,,0.01,,2013-02-12 14:12:00,
2013-02-12 09:22:00,29.0,23.0,30.09,SW,226,5.0,8.0,79,0.00,,,0.01,,2013-02-12 14:22:00,
2013-02-12 09:32:00,29.0,23.0,30.09,SW,232,5.0,10.0,78,0.00,,,0.01,,2013-02-12 14:32:00,
2013-02-12 09:42:00,29.0,23.0,30.09,SW,232,5.0,10.0,78,0.00,,,0.01,,2013-02-12 14:42:00,
2013-02-12 09:52:00,29.0,23.0,30.09,WSW,246,3.0,9.0,78,0.00,,,0.01,,2013-02-12 14:52:00,
2013-02-12 10:02:00,29.0,23.0,30.09,SW,217,5.0,8.0,77,0.00,,,0.01,,2013-02-12 15:02:00,
2013-02-12 10:11:00,29.0,23.0,30.08,West,264,2.0,7.0,78,0.00,,,0.00,,2013-02-12 15:11:00,
2013-02-12 10:21:00,29.0,23.0,30.08,West,264,2.0,7.0,78,0.00,,,0.00,,2013-02-12 15:21:00,
2013-02-12 10:32:00,29.0,23.0,30.09,NW,310,3.0,7.0,77,0.00,,,0.00,,2013-02-12 15:32:00,
2013-02-12 10:42:00,29.0,23.0,30.09,NW,310,3.0,7.0,77,0.00,,,0.00,,2013-02-12 15:42:00,
2013-02-12 10:52:00,30.0,23.0,30.09,WNW,283,4.0,7.0,76,0.00,,,0.00,,2013-02-12 15:52:00,
2013-02-12 11:01:00,30.0,23.0,30.08,WNW,283,4.0,7.0,75,0.00,,,0.00,,2013-02-12 16:01:00,
2013-02-12 11:11:00,30.0,23.0,30.08,WNW,283,4.0,7.0,75,0.00,,,0.00,,2013-02-12 16:11:00,
2013-02-12 11:22:00,31.0,23.0,30.08,SW,226,6.0,8.0,73,0.00,,,0.00,,2013-02-12 16:22:00,
2013-02-12 11:32:00,32.0,25.0,30.08,SW,225,4.0,10.0,75,0.00,,,0.00,,2013-02-12 16:32:00,
2013-02-12 11:42:00,32.0,25.0,30.08,SW,225,4.0,10.0,75,0.00,,,0.00,,2013-02-12 16:42:00,
2013-02-12 11:52:00,32.0,25.0,30.08,SW,221,5.0,9.0,74,0.00,,,0.00,,2013-02-12 16:52:00,
2013-02-12 12:01:00,32.0,24.0,30.08,SW,228,5.0,11.0,73,0.00,,,0.00,,2013-02-12 17:01:00,
2013-02-12 12:12:00,32.0,24.0,30.08,SW,228,5.0,11.0,73,0.00,,,0.00,,2013-02-12 17:12:00,
2013-02-12 12:21:00,33.0,25.0,30.07,SSW,210,5.0,8.0,73,0.00,,,0.00,,2013-02-12 17:21:00,
2013-02-12 12:32:00,33.0,26.0,30.06,WSW,255,3.0,7.0,74,0.00,,,0.00,,2013-02-12 17:32:00,
2013-02-12 12:42:00,33.0,26.0,30.06,WSW,255,3.0,7.0,74,0.00,,,0.00,,2013-02-12 17:42:00,
2013-02-12 12:52:00,33.0,25.0,30.05,WNW,290,4.0,7.0,72,0.00,,,0.00,,2013-02-12 17:52:00,
2013-02-12 13:02:00,33.0,25.0,30.03,West,269,4.0,8.0,73,0.00,,,0.00,,2013-02-12 18:02:00,
2013-02-12 13:12:00,33.0,25.0,30.03,West,269,4.0,8.0,73,0.00,,,0.00,,2013-02-12 18:12:00,
2013-02-12 13:23:00,33.0,25.0,30.01,WSW,243,3.0,10.0,73,0.00,,,0.00,,2013-02-12 18:23:00,
2013-02-12 13:32:00,34.0,26.0,30.00,WSW,255,5.0,9.0,71,0.00,,,0.00,,2013-02-12 18:32:00,
2013-02-12 13:42:00,34.0,26.0,30.00,WSW,255,5.0,9.0,71,0.00,,,0.00,,2013-02-12 18:42:00,
2013-02-12 13:52:00,34.0,26.0,30.00,WSW,240,3.0,8.0,71,0.00,,,0.00,,2013-02-12 18:52:00,
2013-02-12 14:02:00,34.0,26.0,30.00,WSW,240,3.0,6.0,71,0.00,,,0.00,,2013-02-12 19:02:00,
2013-02-12 14:11:00,34.0,26.0,30.00,WSW,240,3.0,6.0,71,0.00,,,0.00,,2013-02-12 19:11:00,
2013-02-12 14:21:00,35.0,27.0,30.01,WNW,297,4.0,7.0,71,0.00,,,0.00,,2013-02-12 19:21:00,
2013-02-12 14:32:00,35.0,26.0,30.00,West,278,4.0,11.0,70,0.00,,,0.00,,2013-02-12 19:32:00,
2013-02-12 14:42:00,35.0,26.0,30.00,West,278,4.0,11.0,70,0.00,,,0.00,,2013-02-12 19:42:00,
2013-02-12 14:52:00,34.0,26.0,29.99,WNW,295,3.0,6.0,71,0.00,,,0.00,,2013-02-12 19:52:00,
2013-02-12 15:01:00,35.0,26.0,30.00,West,277,4.0,9.0,70,0.00,,,0.00,,2013-02-12 20:01:00,
2013-02-12 15:11:00,35.0,26.0,30.00,West,277,4.0,9.0,70,0.00,,,0.00,,2013-02-12 20:11:00,
2013-02-12 15:22:00,35.0,27.0,30.01,SSW,204,5.0,11.0,71,0.00,,,0.00,,2013-02-12 20:22:00,
2013-02-12 15:32:00,35.0,26.0,30.01,SSW,200,6.0,10.0,70,0.00,,,0.00,,2013-02-12 20:32:00,
2013-02-12 15:41:00,35.0,26.0,30.01,SSW,200,6.0,10.0,70,0.00,,,0.00,,2013-02-12 20:41:00,
2013-02-12 15:52:00,35.0,27.0,30.01,WSW,257,5.0,8.0,71,0.00,,,0.00,,2013-02-12 20:52:00,
2013-02-12 16:02:00,35.0,27.0,30.01,SW,219,5.0,11.0,73,0.00,,,0.00,,2013-02-12 21:02:00,
2013-02-12 16:11:00,35.0,27.0,30.01,SW,219,5.0,11.0,73,0.00,,,0.00,,2013-02-12 21:11:00,
2013-02-12 16:21:00,34.0,27.0,30.01,WSW,247,6.0,13.0,74,0.00,,,0.00,,2013-02-12 21:21:00,
2013-02-12 16:32:00,34.0,27.0,30.01,SSW,197,6.0,11.0,76,0.00,,,0.00,,2013-02-12 21:32:00,
2013-02-12 16:42:00,33.0,26.0,30.00,SSW,205,6.0,11.0,76,0.00,,,0.00,,2013-02-12 21:42:00,
2013-02-12 16:52:00,33.0,26.0,30.00,SSW,205,6.0,11.0,76,0.00,,,0.00,,2013-02-12 21:52:00,
2013-02-12 17:01:00,33.0,27.0,30.00,SW,230,7.0,11.0,77,0.00,,,0.00,,2013-02-12 22:01:00,
2013-02-12 17:12:00,33.0,27.0,30.00,SW,230,7.0,11.0,77,0.00,,,0.00,,2013-02-12 22:12:00,
2013-02-12 17:21:00,33.0,26.0,30.00,SSW,213,6.0,11.0,76,0.00,,,0.00,,2013-02-12 22:21:00,
2013-02-12 17:32:00,32.0,26.0,30.00,WNW,283,4.0,9.0,77,0.00,,,0.00,,2013-02-12 22:32:00,
2013-02-12 17:42:00,32.0,26.0,30.00,WNW,283,4.0,9.0,77,0.00,,,0.00,,2013-02-12 22:42:00,
2013-02-12 17:52:00,32.0,25.0,29.99,SSW,213,7.0,13.0,76,0.00,,,0.00,,2013-02-12 22:52:00,
2013-02-12 18:01:00,31.0,25.0,29.99,SW,236,3.0,9.0,78,0.00,,,0.00,,2013-02-12 23:01:00,
2013-02-12 18:11:00,31.0,25.0,29.99,WSW,243,4.0,8.0,79,0.00,,,0.00,,2013-02-12 23:11:00,
2013-02-12 18:21:00,31.0,25.0,29.99,WSW,243,4.0,8.0,79,0.00,,,0.00,,2013-02-12 23:21:00,
2013-02-12 18:32:00,31.0,26.0,29.99,SSW,213,4.0,8.0,81,0.00,,,0.00,,2013-02-12 23:32:00,
2013-02-12 18:42:00,31.0,26.0,29.99,SSW,213,4.0,8.0,81,0.00,,,0.00,,2013-02-12 23:42:00,
2013-02-12 18:52:00,31.0,26.0,29.98,NW,324,3.0,8.0,81,0.00,,,0.00,,2013-02-12 23:52:00,
2013-02-12 19:02:00,31.0,26.0,29.99,SW,229,3.0,6.0,80,0.00,,,0.00,,2013-02-13 00:02:00,
2013-02-12 19:11:00,31.0,26.0,29.99,SW,229,3.0,6.0,80,0.00,,,0.00,,2013-02-13 00:11:00,
2013-02-12 19:22:00,31.0,26.0,29.98,WSW,250,2.0,5.0,81,0.00,,,0.00,,2013-02-13 00:22:00,
2013-02-12 19:32:00,31.0,26.0,29.98,SW,217,3.0,6.0,81,0.00,,,0.00,,2013-02-13 00:32:00,
2013-02-12 19:42:00,31.0,26.0,29.98,SW,217,3.0,6.0,81,0.00,,,0.00,,2013-02-13 00:42:00,
2013-02-12 19:52:00,30.0,25.0,29.98,WNW,296,3.0,6.0,81,0.00,,,0.00,,2013-02-13 00:52:00,
2013-02-12 20:01:00,30.0,25.0,29.98,West,277,2.0,7.0,82,0.00,,,0.00,,2013-02-13 01:01:00,
2013-02-12 20:11:00,30.0,25.0,29.98,West,277,2.0,7.0,82,0.00,,,0.00,,2013-02-13 01:11:00,
2013-02-12 20:21:00,30.0,25.0,29.98,West,260,3.0,6.0,81,0.00,,,0.00,,2013-02-13 01:21:00,
2013-02-12 20:31:00,30.0,25.0,29.97,West,261,1.0,6.0,81,0.00,,,0.00,,2013-02-13 01:31:00,
2013-02-12 20:42:00,30.0,25.0,29.97,West,261,1.0,6.0,81,0.00,,,0.00,,2013-02-13 01:42:00,
2013-02-12 20:52:00,30.0,25.0,29.97,West,264,1.0,3.0,81,0.00,,,0.00,,2013-02-13 01:52:00,
2013-02-12 21:01:00,30.0,25.0,29.97,West,275,1.0,4.0,82,0.00,,,0.00,,2013-02-13 02:01:00,
2013-02-12 21:11:00,30.0,25.0,29.97,West,275,1.0,4.0,82,0.00,,,0.00,,2013-02-13 02:11:00,
2013-02-12 21:22:00,30.0,25.0,29.96,WNW,300,2.0,4.0,81,0.00,,,0.00,,2013-02-13 02:22:00,
2013-02-12 21:32:00,30.0,25.0,29.96,SW,219,2.0,5.0,82,0.00,,,0.00,,2013-02-13 02:32:00,
2013-02-12 21:42:00,30.0,25.0,29.96,SW,219,2.0,5.0,82,0.00,,,0.00,,2013-02-13 02:42:00,
2013-02-12 21:52:00,30.0,25.0,29.96,NW,313,2.0,7.0,81,0.00,,,0.00,,2013-02-13 02:52:00,
2013-02-12 22:01:00,29.0,24.0,29.96,NW,320,5.0,7.0,81,0.00,,,0.00,,2013-02-13 03:01:00,
2013-02-12 22:12:00,29.0,24.0,29.95,WNW,286,2.0,5.0,81,0.00,,,0.00,,2013-02-13 03:12:00,
2013-02-12 22:21:00,29.0,24.0,29.95,WNW,286,2.0,5.0,81,0.00,,,0.00,,2013-02-13 03:21:00,
2013-02-12 22:32:00,29.0,24.0,29.95,WSW,255,0.0,4.0,82,0.00,,,0.00,,2013-02-13 03:32:00,
2013-02-12 22:42:00,29.0,24.0,29.95,WSW,255,0.0,4.0,82,0.00,,,0.00,,2013-02-13 03:42:00,
2013-02-12 22:52:00,29.0,24.0,29.95,WSW,252,2.0,3.0,81,0.00,,,0.00,,2013-02-13 03:52:00,
2013-02-12 23:01:00,29.0,24.0,29.94,WSW,244,1.0,4.0,82,0.00,,,0.00,,2013-02-13 04:01:00,
2013-02-12 23:11:00,29.0,24.0,29.94,WSW,244,1.0,4.0,82,0.00,,,0.00,,2013-02-13 04:11:00,
2013-02-12 23:21:00,29.0,25.0,29.94,SW,219,2.0,3.0,83,0.00,,,0.00,,2013-02-13 04:21:00,
2013-02-12 23:32:00,29.0,25.0,29.94,NW,313,2.0,4.0,83,0.00,,,0.00,,2013-02-13 04:32:00,
2013-02-12 23:42:00,29.0,25.0,29.94,NW,313,2.0,4.0,83,0.00,,,0.00,,2013-02-13 04:42:00,
2013-02-12 23:52:00,28.0,23.0,29.94,NNW,327,1.0,5.0,82,0.00,,,0.00,,2013-02-13 04:52:00,